#timestamp,LO_Frequency,Hit,StdDev 
1628805615.4,286047005.4,N
1628805635.2,286047005.3,N
1628805655.1,286047005.3,N
1628805656.0,286047005.3,N
1628805675.8,286047004.8,N
1628805695.7,286047005.5,N
1628805715.5,286047003.1,N
1628805735.3,286047003.2,N
1628805755.2,286047005.9,N
1628805775.0,286047005.7,N
1628805775.9,286047005.7,N
1628805795.8,286047005.9,N
1628805815.6,286047003.1,N
1628805835.4,286047005.8,N
1628805855.3,286047005.5,N
1628805875.1,286047003.4,N
1628805895.8,286047005.4,N
1628805915.7,286047005.7,N
1628805935.5,286047005.8,N
1628805955.4,286047005.4,N
1628805975.2,286047005.2,N
1628805995.0,286047004.8,N
1628805995.9,286047004.8,N
1628806015.8,286047005.7,N
1628806035.6,286047005.8,N
1628806055.4,286047003.5,N
1628806075.3,286047003.0,N
1628806095.1,286047003.4,N
1628806115.9,286047002.9,N
1628806135.7,286047002.9,N
1628806155.5,286047003.3,N
1628806175.4,286047005.9,Y
1628806195.2,286047000.4,P
1628806215.0,286047000.6,N
1628806215.9,286047000.6,N
1628806235.8,286047000.9,N
1628806255.6,286047001.0,N
1628806275.5,286047000.5,N
1628806295.3,286047000.4,N
1628806315.1,286047002.3,N
1628806335.9,286046999.8,N
1628806355.7,286046999.8,N
1628806375.6,286047002.4,N
1628806395.4,286047000.9,N
1628806415.2,286047000.8,N
1628806435.1,286046998.2,N
1628806436.0,286046998.2,N
1628806455.8,286046998.6,N
1628806475.6,286046998.5,N
1628806495.5,286046998.9,N
1628806515.3,286046999.0,N
1628806535.2,286046998.9,N
1628806555.9,286046998.5,N
1628806575.7,286046999.0,N
1628806595.6,286046999.1,N
1628806615.4,286046996.6,N
1628806635.2,286046998.0,N
1628806655.1,286046996.0,N
1628806656.0,286046996.0,N
1628806675.8,286046996.4,N
1628806695.7,286046995.6,N
1628806715.5,286046995.9,N
1628806735.3,286046995.6,N
1628806755.2,286046993.3,Y
1628806775.0,286046997.5,P
1628806775.9,286046997.5,P
1628806795.7,286046997.4,P
1628806815.6,286046998.0,Y
1628806835.4,286046998.8,P
1628806855.3,286046998.4,P
1628806875.1,286046998.5,P
1628806876.0,286046998.5,Y
1628806895.8,286047001.9,P
1628806915.7,286046999.9,N
1628806935.5,286047002.3,N
1628806955.3,286047002.0,N
1628806975.2,286047001.6,N
1628806995.0,286047002.7,N
1628806995.9,286047002.7,N
1628807015.8,286047002.8,N
1628807035.6,286047000.3,N
1628807055.4,286047000.5,N
1628807075.3,286047000.8,N
1628807095.1,286047000.5,N
1628807115.8,286047000.9,N
1628807135.7,286047000.7,N
1628807155.5,286047000.8,N
1628807175.4,286047000.5,N
1628807195.2,286047000.8,N
1628807215.0,286047000.3,N
1628807215.9,286047000.3,N
1628807235.8,286046999.7,N
1628807255.6,286047002.3,N
1628807275.4,286047000.0,N
1628807295.3,286047002.7,N
1628807315.1,286047000.2,N
1628807335.9,286047000.0,N
1628807355.7,286046999.8,N
1628807375.5,286047000.9,N
1628807395.4,286046999.8,N
1628807415.2,286047002.4,N
1628807435.0,286047002.2,N
1628807435.9,286047002.2,N
1628807455.8,286047002.5,N
1628807475.6,286047004.1,Y
1628807495.5,286047002.0,P
1628807515.3,286047002.2,P
1628807535.1,286047002.2,P
1628807555.9,286046999.9,N
1628807575.7,286047000.1,N
1628807595.5,286047002.0,N
1628807615.4,286047002.1,N
1628807635.2,286047002.0,N
1628807655.1,286047002.7,Y
1628807656.0,286047002.7,P
1628807675.8,286047000.1,N
1628807695.6,286047000.2,N
1628807715.5,286047000.4,N
1628807735.3,286047000.4,N
1628807755.1,286047000.5,N
1628807775.9,286047001.1,N
1628807795.7,286046998.5,N
1628807815.6,286047001.0,N
1628807835.4,286047000.8,N
1628807855.2,286047001.0,N
1628807875.1,286047001.0,N
1628807876.0,286047001.0,N
1628807895.8,286046998.5,N
1628807915.7,286046998.3,N
1628807935.5,286046999.0,N
1628807955.3,286046997.0,N
1628807975.2,286046997.6,N
1628807995.9,286046996.9,N
1628808015.7,286046997.2,N
1628808035.6,286046996.7,N
1628808055.4,286046997.7,N
1628808075.2,286046997.9,N
1628808095.1,286046997.7,N
1628808096.0,286046997.7,N
1628808115.8,286046996.9,N
1628808135.7,286046999.4,N
1628808155.5,286046998.6,N
1628808175.3,286046999.6,N
1628808195.2,286046999.5,N
1628808215.0,286046998.8,N
1628808215.9,286046998.8,N
1628808235.8,286047001.0,N
1628808255.6,286047001.0,N
1628808275.4,286046998.3,N
1628808295.3,286046998.9,N
1628808315.1,286046998.7,N
1628808335.8,286046998.9,N
1628808355.7,286046998.8,N
1628808375.5,286046998.9,N
1628808395.3,286046998.2,N
1628808415.2,286046998.9,N
1628808435.0,286047001.1,N
1628808435.9,286047001.1,N
1628808455.8,286047000.4,N
1628808475.6,286047000.7,N
1628808495.4,286047000.6,N
1628808515.6,286047001.0,N
1628808535.4,286047000.5,N
1628808555.3,286046999.8,N
1628808575.1,286046999.8,N
1628808576.0,286046999.8,N
1628808595.8,286046999.9,N
1628808615.7,286046999.9,N
1628808635.5,286047000.5,N
1628808655.3,286047002.3,N
1628808675.2,286047002.8,N
1628808695.0,286046998.1,N
1628808695.9,286046998.1,N
1628808715.8,286046998.5,N
1628808735.6,286047001.1,N
1628808755.4,286046999.0,N
1628808775.3,286046998.6,N
1628808795.1,286047000.8,N
1628808815.8,286047000.0,N
1628808835.7,286047000.3,N
1628808855.5,286046999.9,N
1628808875.1,286046999.8,N
1628808876.0,286046999.8,N
1628808895.8,286046998.1,N
1628808915.6,286046998.8,N
1628808935.5,286046998.4,N
1628808955.3,286047000.4,N
1628808975.1,286047000.4,N
1628808995.9,286047000.3,N
1628809015.7,286047000.1,N
1628809035.6,286047002.4,N
1628809055.4,286047000.1,N
1628809075.2,286046999.8,N
1628809095.1,286047000.4,N
1628809096.0,286047000.4,N
1628809115.8,286046999.7,N
1628809135.7,286047000.5,N
1628809155.5,286047001.7,N
1628809175.3,286047001.4,N
1628809195.2,286047002.0,N
